Miscellaneous Local Product
Issued by NWS North Platte, NE

Home | Current Version | Previous Version | Graphics & Text | Print | Product List | Glossary On
Versions: 1 2 3 4 5 6 7 8 9 10 11 12 13 14 15 16 17 18 19 20 21 22 23 24 25 26 27 28 29 30 31 32 33 34 35 36 37 38 39 40 41 42 43 44 45 46 47 48 49 50
666
AXUS43 KLBF 270710
MISLBF


WESTERN AND NORTH CENTRAL NEBRASKA HOURLY WEATHER ROUNDUP
NATIONAL WEATHER SERVICE NORTH PLATTE NE
200 AM CDT SAT AUG 27 2016

NOTE: "FAIR" INDICATES FEW OR NO CLOUDS BELOW 12,000 FEET WITH NO
SIGNIFICANT WEATHER AND/OR OBSTRUCTIONS TO VISIBILITY.

NOTE: STATIONS NOT REPORTING VARIABLES SUCH AS SKY/WEATHER OR
PRESSURE ARE PROVIDED BY RAWS AND APRS NETWORKS AND ARE NOT UNDER
NATIONAL WEATHER SERVICE QUALITY CONTROL.

...OBSERVATIONS IN AND NEAR THE EASTERN PANHANDLE OF NEBRASKA...

CITY           SKY/WX    TMP DP  RH WIND       PRES   REMARKS
PINE RIDGE     LGT RAIN  56  55  97 SE18      30.01F
CHADRON        MOCLDY    56  52  86 SE10      30.03S
ALLIANCE       CLOUDY    54  52  93 N14       30.09S
SIDNEY         CLOUDY    53  51  93 SW5       30.09F FOG
CRESCENT LAKE    N/A     56  56 100 SE3         N/A
$$

...OBSERVATIONS IN NORTHERN NEBRASKA AND FAR SOUTHERN SOUTH DAKOTA...

CITY           SKY/WX    TMP DP  RH WIND       PRES   REMARKS
WINNER         FAIR      57  54  89 S8        30.01F
VALENTINE      FOG       54  52  93 SW5       30.06R VSB 3/4
THEDFORD       PTCLDY    53  53  98 SW5       30.09R FOG
AINSWORTH      CLEAR     55  55 100 S3        30.05F
O`NEILL        CLOUDY    63  61  94 SE5       30.04F FOG
ORD            CLOUDY    63  61  93 E5        30.01F
BROKEN BOW     CLOUDY    63  62  97 SE5       30.04F
VALENTINE NWR    N/A     52  51  98 CALM        N/A
BUTTE            N/A     61  58  91 S5          N/A
EWING            N/A     62  61  97 CALM        N/A
$$

...OBSERVATIONS IN SOUTHWEST NEBRASKA AND FAR NORTHEAST COLORADO...

CITY           SKY/WX    TMP DP  RH WIND       PRES   REMARKS
WRAY           FAIR     N/A N/A N/A CALM      30.08F
HOLYOKE        FOG       55  54  94 CALM      30.09S VSB 1/4
IMPERIAL       MOCLDY    51  50  96 CALM      30.07S FOG
OGALLALA       CLOUDY    57  55  91 CALM      30.07F
NORTH PLATTE   FOG       53  52  96 NW6       30.06F VSB 1/4
MCCOOK         CLEAR     53  51  93 NW5       30.05F
LEXINGTON      CLEAR     56  55  94 CALM      30.04F
STAPLETON        N/A     53  52  96 CALM        N/A
GOTHENBURG       N/A     58  54  87 CALM        N/A
CALLAWAY         N/A     53  51  94 CALM        N/A
$$

...OBSERVATIONS IN CENTRAL LINCOLN COUNTY AREA...

CITY           SKY/WX    TMP DP  RH WIND       PRES   REMARKS
N.P. AIRPORT   FOG       53  52  96 NW6       30.06F VSB 1/4
N.P. DOWNTOWN    N/A     54  53  97 CALM        N/A
N.P. SOUTHEAST   N/A     55  54  96 CALM        N/A
N.P. HILLCREST   N/A     55  54  97 N3          N/A
$$

...SOME OBSERVATIONS FROM AROUND THE REGION...

CITY           SKY/WX    TMP DP  RH WIND       PRES   REMARKS
DENVER         CLOUDY    56  49  77 CALM      30.13R
LARAMIE        CLOUDY    50  37  61 SW9       30.19F
CHEYENNE       CLOUDY    52  46  80 W7        30.16F
SCOTTSBLUFF    PTCLDY    56  52  86 SE9       30.08R
RAPID CITY     LGT RAIN  53  52  96 E7        30.02F
BISMARCK       CLEAR     53  51  93 CALM      29.99F
PIERRE         PTCLDY    58  55  90 S9        29.98F
SIOUX FALLS    RAIN      63  61  93 SE10      30.05S FOG
OMAHA          CLOUDY    66  62  87 E3        30.02F
GRAND ISLAND   CLOUDY    65  63  93 CALM      30.04R
KANSAS CITY    CLOUDY    69  66  90 S6        30.02F
WICHITA        PTCLDY    71  68  90 SE7       30.00F
OKLAHOMA CITY  MOCLDY    72  68  87 S8        30.02F
DALLAS         MOCLDY    78  70  76 S9        29.99F
AMARILLO       LGT RAIN  62  60  93 SE14      30.13F
DODGE CITY     MOCLDY    68  64  87 S7        30.03S
HAYS           CLOUDY    61  52  72 E3        30.04S
GOODLAND       CLEAR     51  50  96 CALM      30.07S FOG
$$




USA.gov is the U.S. government's official web portal to all federal, state and local government web resources and services.